{"data":{"norad_id":56715,"intl_designator":"2023-068F","name":"ONEWEB-0679","alt_names":[],"object_type":"PAYLOAD","status":"ACTIVE","operator":null,"country":"UK","launch_date":"2023-05-20","launch_site_code":"AFWTR","launch_vehicle":null,"mission":null,"orbit_class":"UNKNOWN","rcs_meters":null,"size_class":null,"mass_kg":null,"dimensions":null,"purposes":["comms"],"wikipedia_slug":null,"has_3d_model":false,"image_url":null,"decayed_at":null,"tle_current":{"epoch":"2026-09-19T15:09:56.442528Z","epoch_age_seconds":97005,"freshness":"FRESH","line1":"1 56715U 23068F   26262.63190327  .00000072  00000+0  15570-3 0  9991","line2":"2 56715  87.9156 210.0197 0002106  92.6020 267.5352 13.16594458164153","mean_motion":13.16594458,"eccentricity":0.0002106,"inclination_deg":87.9156,"raan_deg":210.0197,"arg_perigee_deg":92.602,"mean_anomaly_deg":267.5352,"bstar":0.0001557,"rev_number":16415,"period_min":109.37308684919,"perigee_km":1196.1604129927,"apogee_km":1199.3513790805,"semimajor_km":7575.8928960366,"source":"CELESTRAK","updated_at":"2026-09-20T09:00:44.795335Z"}}}